Tracking 19634 objects as of 22-May-2019
HD Live streaming from Space Station
objects crossing your sky now

IRIDIUM 60


IRIDIUM 60 is no longer on orbit
IRIDIUM 60 is classified as:


NORAD ID: 25276
Int'l Code: 1998-019E
Perigee: N/A
Apogee: N/A
Inclination: N/A
Period: N/A
Semi major axis: N/A
RCS: N/A
Launch date: March 30, 1998
Source: United States (US)
Launch site: AIR FORCE WESTERN TEST RANGE (AFWTR)
Decay date: 2019-03-17
aabbcc
Your satellite tracking list
Your tracking list is empty




NASA's NSSDC Master Catalog

Two Line Element Set (TLE):
1 25276U 98019E   19076.09838740  .20703913 -20185-5  27553-3 0  9993
2 25276  86.6001  19.3692 0055885 123.4760   3.9128 16.42359298 97670
Source of the keplerian elements: AFSPC